Location: Utrecht
(52.0907°N, 5.1214°E)
Time: 07:09:04
(UTC+02:00)

NANOSAT C BR1 - Pass Details

Date: 07 July 2022
Orbit: 584 x 599 km, 98.0° (Epoch: 07 August)

Event Time Altitude Azimuth Distance (km) Brightness Sun altitude
Rises 02:26:48 0° 31° (NNE) 2,855 ? -14.7°
Reaches altitude 10° 02:30:22 10° 63° (ENE) 1,948 ? -14.6°
Maximum altitude 02:32:00 12° 86° (E) 1,817 ? -14.6°
Drops below altitude 10° 02:33:39 10° 109° (ESE) 1,943 ? -14.5°
Enters shadow 02:35:51 - 132° (SE) 2,438 ? -14.5°
